Location: Ellerstadt
(49.4644°N, 8.2615°E)
Time: 11:54:39
(UTC+00:00)

Vanguard 1 Rocket - Visible Passes

Search period start: 13 June 2021 00:00
Search period end: 23 June 2021 00:00
Orbit: 651 x 4225 km, 34.3° (Epoch: 12 June)

Date Brightness Start Highest point End Pass type
(mag) Time Alt. Az. Time Alt. Az. Time Alt. Az.
13 Jun 10.4 01:11:34 10° WSW 01:27:24 51° S 01:51:20 10° ESE visible
13 Jun 10.0 21:38:24 10° SSW 21:47:51 30° SE 22:03:12 10° E visible
14 Jun 10.1 00:00:36 10° WSW 00:14:07 49° S 00:36:29 10° ESE visible
14 Jun 10.6 02:25:51 10° W 02:43:09 46° SSW 03:06:47 10° SE visible
14 Jun 10.1 20:30:13 10° S 20:36:58 19° SE 20:46:39 10° E visible
14 Jun 9.9 22:50:15 10° SW 23:01:34 42° SSE 23:21:05 10° E visible
15 Jun 10.3 01:14:15 10° WSW 01:29:29 49° S 01:52:57 10° ESE visible
15 Jun 9.8 21:40:35 10° SSW 21:49:49 33° SSE 22:05:23 10° E visible
16 Jun 10.0 00:03:15 10° WSW 00:16:16 48° S 00:38:14 10° ESE visible
16 Jun 10.6 02:28:38 10° W 02:45:06 42° SSW 03:07:58 10° SE visible
16 Jun 9.8 20:31:52 10° S 20:38:51 22° SE 20:49:25 10° E visible
16 Jun 9.8 22:52:49 10° SW 23:03:44 44° SSE 23:22:58 10° ESE visible
17 Jun 10.3 01:17:00 10° WSW 01:31:36 46° S 01:54:22 10° SE visible
17 Jun 9.6 21:42:58 10° SW 21:51:56 35° SSE 22:07:30 10° E visible
18 Jun 10.0 00:05:58 10° WSW 00:18:30 47° S 00:39:51 10° ESE visible
18 Jun 10.6 02:31:33 10° W 02:47:05 38° SSW 03:08:50 10° SSE visible
18 Jun 9.6 20:33:53 10° SSW 20:40:53 25° SE 20:51:56 10° E visible
18 Jun 9.7 22:55:29 10° WSW 23:06:00 44° S 23:24:47 10° ESE visible
19 Jun 10.3 01:19:50 10° WSW 01:33:46 42° SSW 01:55:35 10° SE visible
19 Jun 9.5 21:45:30 10° SW 21:54:11 37° SSE 22:09:31 10° E visible
20 Jun 9.9 00:08:47 10° WSW 00:20:48 44° S 00:41:20 10° ESE visible
20 Jun 10.7 02:34:39 10° W 02:49:06 33° SSW 03:09:20 10° SSE visible
20 Jun 9.5 20:36:08 10° SSW 20:43:02 27° SSE 20:54:18 10° E visible
20 Jun 9.6 22:58:14 10° WSW 23:08:20 43° S 23:26:30 10° ESE visible
21 Jun 10.3 01:22:48 10° WSW 01:35:58 38° SSW 01:56:32 10° SE visible
21 Jun 9.4 21:48:09 10° SW 21:56:31 38° SSE 22:11:28 10° ESE visible
22 Jun 9.9 00:11:41 10° WSW 00:23:08 41° S 00:42:38 10° SE visible
22 Jun 10.7 02:37:59 10° W 02:51:10 27° SSW 03:09:21 10° SSE visible
22 Jun 9.3 20:38:35 10° SSW 20:45:20 29° SSE 20:56:34 10° ESE visible
22 Jun 9.6 23:01:04 10° WSW 23:10:46 41° S 23:28:06 10° ESE visible
